When you browse on this site, cookies collect data to enhance your experience and personalize the content and advertising you see.
Visit our Privacy Policy to learn more. By continuing to use the site, you agree to this use of cookies and data.
  • In Austria
  • List of Countries
  • For 7 days
  • Water Temperature
  • Weather Map
  • News
  • Weather Widgets
  • user-avatar
    Login

    Hourly Weather Fredericton

    Today, 8 December, Sunday

    Time Temperature Precipitation Wind Pressure Humidity
    00:00 -14°C° 0 mm 3 mps 767 mmHg 87%
    01:00 -14°C° 0 mm 3 mps 767 mmHg 88%
    02:00 -15°C° 0 mm 3 mps 768 mmHg 88%
    03:00 -14°C° 0 mm 2 mps 768 mmHg 89%
    04:00 -14°C° 0 mm 2 mps 768 mmHg 89%
    05:00 -14°C° 0 mm 2 mps 768 mmHg 89%
    06:00 -15°C° 0 mm 2 mps 769 mmHg 89%
    07:00 -15°C° 0 mm 2 mps 769 mmHg 89%
    08:00 -15°C° 0 mm 2 mps 769 mmHg 89%
    09:00 -13°C° 0 mm 2 mps 769 mmHg 85%
    10:00 -10°C° 0 mm 2 mps 769 mmHg 81%
    11:00 -9°C° 0 mm 2 mps 770 mmHg 77%
    12:00 -8°C° 0 mm 3 mps 769 mmHg 76%
    13:00 -7°C° 0 mm 3 mps 769 mmHg 75%
    14:00 -6°C° 0 mm 3 mps 768 mmHg 75%
    15:00 -6°C° 0 mm 3 mps 768 mmHg 77%
    16:00 -7°C° 0 mm 3 mps 767 mmHg 80%
    17:00 -7°C° 0 mm 2 mps 767 mmHg 82%
    18:00 -6°C° 0 mm 3 mps 767 mmHg 81%
    19:00 -5°C° 0 mm 4 mps 766 mmHg 79%
    20:00 -4°C° 0 mm 4 mps 766 mmHg 78%
    21:00 -3°C° 0 mm 4 mps 765 mmHg 77%
    22:00 -2°C° 0 mm 4 mps 765 mmHg 77%
    23:00 -2°C° 0 mm 4 mps 764 mmHg 76%

    Tomorrow, 9 December, Monday

    Time Temperature Precipitation Wind Pressure Humidity
    00:00 -2°C° 0 mm 4 mps 764 mmHg 77%
    01:00 -2°C° 0 mm 4 mps 764 mmHg 77%
    02:00 -2°C° 0 mm 4 mps 764 mmHg 77%
    03:00 -1°C° 0 mm 5 mps 763 mmHg 81%
    04:00 -1°C° 0 mm 5 mps 763 mmHg 85%
    05:00 -1°C° 0 mm 5 mps 763 mmHg 89%
    06:00 0°C° 0.3 mm 5 mps 763 mmHg 92%
    07:00 0°C° 0.3 mm 5 mps 763 mmHg 94%
    08:00 0°C° 0.3 mm 4 mps 764 mmHg 97%
    09:00 0°C° 0.1 mm 4 mps 764 mmHg 96%
    10:00 +1°C° 0.1 mm 4 mps 764 mmHg 95%
    11:00 +2°C° 0.1 mm 3 mps 764 mmHg 94%
    12:00 +2°C° 0 mm 3 mps 763 mmHg 95%
    13:00 +3°C° 0 mm 3 mps 763 mmHg 96%
    14:00 +3°C° 0 mm 3 mps 763 mmHg 96%
    15:00 +3°C° 0 mm 3 mps 762 mmHg 97%
    16:00 +4°C° 0 mm 3 mps 762 mmHg 97%
    17:00 +4°C° 0 mm 3 mps 761 mmHg 98%
    18:00 +5°C° 1.4 mm 3 mps 761 mmHg 98%
    19:00 +5°C° 1.4 mm 3 mps 760 mmHg 98%
    20:00 +6°C° 1.4 mm 4 mps 759 mmHg 98%
    21:00 +7°C° 1.8 mm 5 mps 757 mmHg 97%
    22:00 +8°C° 1.8 mm 6 mps 756 mmHg 95%
    23:00 +9°C° 1.8 mm 7 mps 755 mmHg 94%

    Day after tomorrow, 10 December, Tuesday

    Time Temperature Precipitation Wind Pressure Humidity
    00:00 +9°C° 2.1 mm 7 mps 753 mmHg 93%
    01:00 +9°C° 2.1 mm 8 mps 752 mmHg 92%
    02:00 +9°C° 2.1 mm 8 mps 750 mmHg 92%
    03:00 +10°C° 2.6 mm 8 mps 748 mmHg 91%
    04:00 +10°C° 2.6 mm 8 mps 747 mmHg 91%
    05:00 +11°C° 2.6 mm 8 mps 745 mmHg 90%
    06:00 +10°C° 0 mm 7 mps 745 mmHg 90%
    07:00 +10°C° 0 mm 6 mps 746 mmHg 90%
    08:00 +10°C° 0 mm 5 mps 746 mmHg 90%
    09:00 +10°C° 0 mm 5 mps 746 mmHg 89%
    10:00 +10°C° 0 mm 5 mps 747 mmHg 88%
    11:00 +10°C° 0 mm 5 mps 747 mmHg 87%
    12:00 +10°C° 0 mm 5 mps 748 mmHg 86%
    13:00 +11°C° 0 mm 4 mps 748 mmHg 84%
    14:00 +11°C° 0 mm 4 mps 748 mmHg 82%
    15:00 +11°C° 0.1 mm 4 mps 748 mmHg 84%
    16:00 +10°C° 0.1 mm 4 mps 748 mmHg 85%
    17:00 +8°C° 0.1 mm 4 mps 749 mmHg 86%
    18:00 +7°C° 0 mm 5 mps 750 mmHg 83%
    19:00 +6°C° 0 mm 5 mps 751 mmHg 80%
    20:00 +3°C° 0 mm 5 mps 752 mmHg 77%
    21:00 +2°C° 0 mm 5 mps 753 mmHg 73%
    22:00 0°C° 0 mm 5 mps 754 mmHg 70%
    23:00 -1°C° 0 mm 5 mps 756 mmHg 66%

    11 December, Wednesday

    Time Temperature Precipitation Wind Pressure Humidity
    00:00 -4°C° 0.1 mm 5 mps 756 mmHg 70%
    01:00 -5°C° 0.1 mm 5 mps 757 mmHg 74%
    02:00 -6°C° 0.1 mm 5 mps 758 mmHg 78%
    03:00 -5°C° 0.4 mm 4 mps 759 mmHg 79%
    04:00 -7°C° 0.4 mm 4 mps 760 mmHg 80%
    05:00 -7°C° 0.4 mm 3 mps 760 mmHg 81%
    06:00 -7°C° 0.4 mm 3 mps 761 mmHg 80%
    07:00 -7°C° 0.4 mm 3 mps 761 mmHg 80%
    08:00 -6°C° 0.4 mm 2 mps 761 mmHg 79%
    09:00 -6°C° 0 mm 2 mps 762 mmHg 75%
    10:00 -6°C° 0 mm 2 mps 762 mmHg 71%
    11:00 -5°C° 0 mm 2 mps 763 mmHg 67%
    12:00 -5°C° 0 mm 2 mps 763 mmHg 64%
    13:00 -5°C° 0 mm 2 mps 762 mmHg 61%
    14:00 -4°C° 0 mm 2 mps 762 mmHg 58%
    15:00 -5°C° 0 mm 2 mps 763 mmHg 63%
    16:00 -3°C° 0 mm 1 mps 763 mmHg 67%
    17:00 -4°C° 0 mm 1 mps 763 mmHg 72%
    18:00 -4°C° 0 mm 1 mps 764 mmHg 74%
    19:00 -4°C° 0 mm 1 mps 764 mmHg 75%
    20:00 -4°C° 0 mm 1 mps 765 mmHg 77%
    21:00 -4°C° 0 mm 1 mps 764 mmHg 76%
    22:00 -4°C° 0 mm 1 mps 764 mmHg 74%
    23:00 -4°C° 0 mm 1 mps 764 mmHg 72%

    12 December, Thursday

    Time Temperature Precipitation Wind Pressure Humidity
    00:00 -6°C° 0.2 mm 2 mps 764 mmHg 76%
    01:00 -5°C° 0.2 mm 2 mps 763 mmHg 80%
    02:00 -5°C° 0.2 mm 2 mps 763 mmHg 84%
    03:00 -7°C° 0 mm 3 mps 764 mmHg 75%
    04:00 -8°C° 0 mm 5 mps 765 mmHg 65%
    05:00 -10°C° 0 mm 6 mps 766 mmHg 56%
    06:00 -11°C° 0 mm 6 mps 767 mmHg 54%
    07:00 -12°C° 0 mm 6 mps 769 mmHg 52%
    08:00 -14°C° 0 mm 6 mps 770 mmHg 50%
    09:00 -15°C° 0 mm 6 mps 772 mmHg 51%
    10:00 -14°C° 0 mm 5 mps 773 mmHg 52%
    11:00 -14°C° 0 mm 4 mps 774 mmHg 53%
    12:00 -14°C° 0 mm 5 mps 774 mmHg 52%
    13:00 -14°C° 0 mm 5 mps 775 mmHg 50%
    14:00 -14°C° 0 mm 5 mps 775 mmHg 48%
    15:00 -14°C° 0 mm 5 mps 776 mmHg 50%
    16:00 -15°C° 0 mm 4 mps 776 mmHg 52%
    17:00 -15°C° 0 mm 4 mps 777 mmHg 54%
    18:00 -15°C° 0 mm 4 mps 778 mmHg 56%
    19:00 -14°C° 0 mm 3 mps 778 mmHg 57%
    20:00 -15°C° 0 mm 3 mps 779 mmHg 59%
    21:00 -15°C° 0 mm 3 mps 780 mmHg 61%
    22:00 -14°C° 0 mm 2 mps 780 mmHg 62%
    23:00 -14°C° 0 mm 2 mps 781 mmHg 64%

    13 December, Friday

    Time Temperature Precipitation Wind Pressure Humidity
    00:00 -14°C° 0 mm 2 mps 781 mmHg 64%
    01:00 -12°C° 0 mm 1 mps 781 mmHg 65%
    02:00 -13°C° 0 mm 1 mps 781 mmHg 66%
    03:00 -13°C° 0 mm 1 mps 781 mmHg 67%
    04:00 -13°C° 0 mm 1 mps 781 mmHg 69%
    05:00 -13°C° 0 mm 1 mps 781 mmHg 70%
    06:00 -13°C° 0 mm 0 mps 781 mmHg 71%
    07:00 -13°C° 0 mm 0 mps 781 mmHg 72%
    08:00 -13°C° 0 mm 0 mps 781 mmHg 73%
    09:00 -12°C° 0 mm 0 mps 781 mmHg 67%
    10:00 -11°C° 0 mm 1 mps 781 mmHg 62%
    11:00 -10°C° 0 mm 1 mps 781 mmHg 56%
    12:00 -9°C° 0 mm 1 mps 781 mmHg 54%
    13:00 -8°C° 0 mm 1 mps 780 mmHg 51%
    14:00 -8°C° 0 mm 1 mps 779 mmHg 49%
    15:00 -8°C° 0 mm 1 mps 779 mmHg 52%
    16:00 -8°C° 0 mm 1 mps 778 mmHg 54%
    17:00 -8°C° 0 mm 1 mps 778 mmHg 57%
    18:00 -8°C° 0 mm 1 mps 778 mmHg 59%
    19:00 -8°C° 0 mm 1 mps 778 mmHg 61%
    20:00 -8°C° 0 mm 1 mps 777 mmHg 62%
    21:00 -8°C° 0 mm 1 mps 777 mmHg 64%
    22:00 -8°C° 0 mm 1 mps 776 mmHg 65%
    23:00 -8°C° 0 mm 1 mps 776 mmHg 66%
    Show more